| time (UTC) | temp F | wind direction | speed MPH | gust MPH | rain 1hr in | rain 24hr in | rain mn in | humidity % | barometer mb |
| 20260906033039 | 72 | 70 | 3.0 | 6.0 | 0.00 | 0.00 | 0.00 | 85 | 1018.4 |
| 20260906031529 | 73 | 51 | 1.0 | 7.0 | 0.00 | 0.00 | 0.00 | 85 | 1018.5 |
| 20260906030024 | 73 | 86 | 3.0 | 7.0 | 0.00 | 0.00 | 0.00 | 84 | 1018.5 |
| 20260906024517 | 73 | 93 | 3.0 | 6.0 | 0.00 | 0.00 | 0.00 | 84 | 1018.6 |
| 20260906023026 | 73 | 93 | 2.0 | 8.0 | 0.00 | 0.00 | 0.00 | 84 | 1018.6 |
| 20260906021531 | 74 | 93 | 1.0 | 6.0 | 0.00 | 0.00 | 0.00 | 84 | 1018.3 |
| 20260906020031 | 74 | 79 | 2.0 | 6.0 | 0.00 | 0.00 | 0.00 | 83 | 1017.8 |
| 20260906014528 | 74 | 133 | 2.0 | 5.0 | 0.00 | 0.00 | 0.00 | 82 | 1017.4 |
| 20260906013026 | 75 | 150 | 4.0 | 9.0 | 0.00 | 0.00 | 0.00 | 81 | 1017.2 |
| 20260906011523 | 76 | 135 | 2.0 | 8.0 | 0.00 | 0.00 | 0.00 | 80 | 1016.9 |
| 20260906010033 | 77 | 87 | 3.0 | 8.0 | 0.00 | 0.00 | 0.00 | 78 | 1016.7 |
| 20260906004527 | 78 | 151 | 2.0 | 9.0 | 0.00 | 0.00 | 0.00 | 76 | 1016.6 |
| 20260906003006 | 79 | 84 | 3.0 | 9.0 | 0.00 | 0.00 | 0.00 | 73 | 1016.7 |
| 20260906001506 | 80 | 123 | 4.0 | 10.0 | 0.00 | 0.00 | 0.00 | 70 | 1016.5 |
| 20260906000004 | 81 | 115 | 2.0 | 11.0 | 0.00 | 0.00 | 0.00 | 69 | 1016.4 |
| 20260905234525 | 83 | 80 | 2.0 | 12.0 | 0.00 | 0.00 | 0.00 | 66 | 1016.3 |
| 20260905233006 | 84 | 110 | 3.0 | 13.0 | 0.00 | 0.00 | 0.00 | 65 | 1016.3 |
| 20260905231514 | 85 | 77 | 3.0 | 9.0 | 0.00 | 0.00 | 0.00 | 65 | 1016.0 |
| 20260905230015 | 85 | 110 | 5.0 | 13.0 | 0.00 | 0.00 | 0.00 | 64 | 1015.9 |
| 20260905224508 | 85 | 63 | 8.0 | 15.0 | 0.00 | 0.00 | 0.00 | 62 | 1015.6 |
| 20260905223007 | 85 | 93 | 7.0 | 14.0 | 0.00 | 0.00 | 0.00 | 63 | 1015.4 |
| 20260905221520 | 84 | 121 | 9.0 | 15.0 | 0.00 | 0.00 | 0.00 | 65 | 1015.4 |
| 20260905220026 | 83 | 113 | 7.0 | 13.0 | 0.00 | 0.00 | 0.00 | 68 | 1015.7 |
| 20260905214507 | 83 | 93 | 5.0 | 11.0 | 0.00 | 0.00 | 0.00 | 69 | 1015.9 |
| 20260905213016 | 83 | 80 | 4.0 | 11.0 | 0.00 | 0.00 | 0.00 | 67 | 1016.1 |
| 20260905211524 | 84 | 93 | 6.0 | 14.0 | 0.00 | 0.00 | 0.00 | 64 | 1016.0 |
| 20260905210029 | 87 | 86 | 5.0 | 17.0 | 0.00 | 0.00 | 0.00 | 63 | 1016.1 |
| 20260905204531 | 87 | 93 | 6.0 | 14.0 | 0.00 | 0.00 | 0.00 | 65 | 1016.0 |
| 20260905203036 | 85 | 85 | 6.0 | 18.0 | 0.00 | 0.00 | 0.00 | 68 | 1016.2 |
| 20260905201526 | 85 | 64 | 7.0 | 18.0 | 0.00 | 0.00 | 0.00 | 67 | 1016.5 |
| 20260905200025 | 85 | 90 | 7.0 | 14.0 | 0.00 | 0.00 | 0.00 | 68 | 1017.0 |
| 20260905194537 | 84 | 57 | 8.0 | 13.0 | 0.00 | 0.00 | 0.00 | 69 | 1017.3 |
| 20260905193036 | 83 | 55 | 9.0 | 14.0 | 0.00 | 0.00 | 0.00 | 73 | 1017.3 |
| 20260905191526 | 81 | 72 | 3.0 | 7.0 | 0.00 | 0.00 | 0.00 | 75 | 1017.7 |
| 20260905190031 | 80 | 105 | 2.0 | 4.0 | 0.00 | 0.00 | 0.00 | 77 | 1017.9 |
| 20260905184532 | 80 | 146 | 2.0 | 6.0 | 0.00 | 0.00 | 0.00 | 78 | 1017.9 |
| 20260905183024 | 79 | 128 | 1.0 | 5.0 | 0.00 | 0.00 | 0.00 | 77 | 1018.0 |
| 20260905181524 | 79 | 178 | 2.0 | 9.0 | 0.00 | 0.00 | 0.00 | 79 | 1018.2 |
| 20260905180007 | 78 | 128 | 2.0 | 9.0 | 0.00 | 0.00 | 0.00 | 82 | 1018.4 |
| 20260905174513 | 76 | 116 | 1.0 | 8.0 | 0.00 | 0.00 | 0.00 | 84 | 1018.3 |
| 20260905173013 | 75 | 67 | 1.0 | 9.0 | 0.00 | 0.00 | 0.00 | 84 | 1018.9 |
| 20260905171506 | 75 | 107 | 5.0 | 11.0 | 0.00 | 0.00 | 0.00 | 85 | 1018.9 |
| 20260905170012 | 74 | 93 | 3.0 | 9.0 | 0.00 | 0.00 | 0.00 | 86 | 1019.1 |
| 20260905164518 | 74 | 76 | 4.0 | 8.0 | 0.00 | 0.00 | 0.00 | 87 | 1019.0 |
| 20260905163024 | 73 | 82 | 5.0 | 10.0 | 0.00 | 0.00 | 0.00 | 87 | 1019.2 |
| 20260905161505 | 73 | 90 | 4.0 | 11.0 | 0.00 | 0.00 | 0.00 | 88 | 1018.7 |
| 20260905160014 | 72 | 86 | 6.0 | 10.0 | 0.00 | 0.00 | 0.00 | 90 | 1018.7 |
| 20260905154512 | 71 | 110 | 4.0 | 9.0 | 0.00 | 0.00 | 0.00 | 92 | 1018.8 |
| 20260905153017 | 71 | 137 | 1.0 | 6.0 | 0.00 | 0.00 | 0.00 | 94 | 1018.7 |
| 20260905151510 | 70 | 26 | 1.0 | 8.0 | 0.00 | 0.00 | 0.00 | 94 | 1018.7 |
| 20260905150014 | 70 | 83 | 1.0 | 12.0 | 0.00 | 0.00 | 0.00 | 95 | 1018.3 |
| 20260905144523 | 69 | 44 | 3.0 | 11.0 | 0.00 | 0.00 | 0.00 | 95 | 1018.0 |
| 20260905143018 | 69 | 79 | 4.0 | 10.0 | 0.00 | 0.00 | 0.00 | 95 | 1018.1 |
| 20260905141510 | 69 | 66 | 2.0 | 7.0 | 0.00 | 0.00 | 0.00 | 95 | 1018.1 |
| 20260905140013 | 68 | 44 | 3.0 | 9.0 | 0.00 | 0.00 | 0.00 | 95 | 1018.1 |
| 20260905134529 | 68 | 36 | 2.0 | 8.0 | 0.00 | 0.00 | 0.00 | 95 | 1018.2 |
| 20260905133027 | 68 | 44 | 2.0 | 8.0 | 0.00 | 0.00 | 0.00 | 95 | 1018.2 |
| 20260905131514 | 68 | 22 | 1.0 | 6.0 | 0.00 | 0.00 | 0.00 | 95 | 1018.1 |
| 20260905130022 | 67 | 55 | 3.0 | 8.0 | 0.00 | 0.00 | 0.00 | 95 | 1017.9 |
| 20260905124517 | 67 | 70 | 2.0 | 8.0 | 0.00 | 0.00 | 0.00 | 95 | 1017.3 |
| 20260905123008 | 67 | 36 | 2.0 | 6.0 | 0.00 | 0.00 | 0.00 | 95 | 1016.7 |
| 20260905121510 | 67 | 46 | 3.0 | 8.0 | 0.00 | 0.00 | 0.00 | 95 | 1016.8 |
| 20260905120009 | 67 | 74 | 5.0 | 8.0 | 0.00 | 0.00 | 0.00 | 95 | 1017.1 |
| 20260905114504 | 67 | 51 | 3.0 | 7.0 | 0.00 | 0.00 | 0.00 | 95 | 1016.9 |
| 20260905113012 | 67 | 63 | 5.0 | 11.0 | 0.00 | 0.00 | 0.00 | 95 | 1016.7 |
| 20260905111521 | 67 | 93 | 6.0 | 12.0 | 0.00 | 0.00 | 0.00 | 94 | 1016.6 |
| 20260905110023 | 67 | 88 | 5.0 | 10.0 | 0.00 | 0.00 | 0.00 | 94 | 1016.7 |
| 20260905104508 | 67 | 53 | 4.0 | 11.0 | 0.00 | 0.00 | 0.00 | 94 | 1016.6 |
| 20260905103018 | 67 | 39 | 4.0 | 11.0 | 0.00 | 0.00 | 0.00 | 94 | 1016.5 |
| 20260905101509 | 67 | 49 | 5.0 | 12.0 | 0.00 | 0.00 | 0.00 | 94 | 1016.4 |
| 20260905100028 | 67 | 53 | 4.0 | 11.0 | 0.00 | 0.00 | 0.00 | 94 | 1016.2 |
| 20260905094510 | 67 | 49 | 8.0 | 15.0 | 0.00 | 0.00 | 0.00 | 94 | 1015.8 |
| 20260905093016 | 66 | 47 | 3.0 | 10.0 | 0.00 | 0.00 | 0.00 | 94 | 1015.6 |
| 20260905091550 | 66 | 80 | 4.0 | 10.0 | 0.00 | 0.00 | 0.00 | 94 | 1015.8 |
| 20260905090017 | 66 | 44 | 4.0 | 10.0 | 0.00 | 0.00 | 0.00 | 93 | 1016.0 |
| 20260905084511 | 66 | 51 | 5.0 | 10.0 | 0.00 | 0.00 | 0.00 | 93 | 1016.1 |
| 20260905083021 | 65 | 46 | 3.0 | 11.0 | 0.00 | 0.00 | 0.00 | 92 | 1016.1 |
| 20260905081527 | 66 | 55 | 3.0 | 7.0 | 0.00 | 0.00 | 0.00 | 92 | 1016.0 |
| 20260905080036 | 66 | 11 | 3.0 | 7.0 | 0.00 | 0.00 | 0.00 | 91 | 1016.2 |
| 20260905074518 | 66 | 63 | 3.0 | 9.0 | 0.00 | 0.00 | 0.00 | 91 | 1016.2 |
| 20260905073021 | 67 | 59 | 3.0 | 9.0 | 0.00 | 0.00 | 0.00 | 91 | 1016.4 |
| 20260905071516 | 67 | 64 | 3.0 | 10.0 | 0.00 | 0.00 | 0.00 | 90 | 1016.1 |
| 20260905070035 | 67 | 36 | 3.0 | 9.0 | 0.00 | 0.00 | 0.00 | 90 | 1016.3 |
| 20260905064518 | 67 | 78 | 3.0 | 7.0 | 0.00 | 0.00 | 0.00 | 89 | 1016.3 |
| 20260905063026 | 68 | 49 | 4.0 | 10.0 | 0.00 | 0.00 | 0.00 | 89 | 1016.3 |
| 20260905061528 | 68 | 93 | 1.0 | 6.0 | 0.00 | 0.00 | 0.00 | 88 | 1016.1 |
| 20260905060024 | 69 | 51 | 2.0 | 5.0 | 0.00 | 0.00 | 0.00 | 87 | 1016.1 |
| 20260905054519 | 69 | 44 | 3.0 | 9.0 | 0.00 | 0.00 | 0.00 | 87 | 1015.9 |
| 20260905053028 | 70 | 56 | 2.0 | 8.0 | 0.00 | 0.00 | 0.00 | 86 | 1016.0 |
| 20260905051537 | 70 | 57 | 3.0 | 10.0 | 0.00 | 0.00 | 0.00 | 85 | 1015.7 |
| 20260905050035 | 71 | 16 | 2.0 | 7.0 | 0.00 | 0.00 | 0.00 | 84 | 1015.6 |
| 20260905044532 | 71 | 56 | 5.0 | 13.0 | 0.00 | 0.00 | 0.00 | 84 | 1015.4 |
| 20260905043030 | 72 | 39 | 3.0 | 11.0 | 0.00 | 0.00 | 0.00 | 83 | 1015.7 |
| 20260905041526 | 72 | 57 | 6.0 | 11.0 | 0.00 | 0.00 | 0.00 | 82 | 1015.6 |
| 20260905040018 | 73 | 81 | 3.0 | 9.0 | 0.00 | 0.00 | 0.00 | 81 | 1015.6 |
| 20260905034527 | 73 | 74 | 3.0 | 10.0 | 0.00 | 0.00 | 0.00 | 80 | 1015.6 |